This is the latest recevied weather packets stored in our database for station/object N8BAP. If no packets are shown the sender has not sent any weather packets the latest 1 day(s).
| Time | Temp. | Humidity | Pressure | Rain* | Wind** | Luminosity | Snow |
|---|---|---|---|---|---|---|---|
| 1778037091 | 14.44° C | 94% | 1012.8 hPa | 1.27 mm | 1.79 m/s, 264° | 0 W/m² | - |
| 1778036789 | 14.44° C | 94% | 1012.8 hPa | 1.27 mm | 1.34 m/s, 223° | 0 W/m² | - |
| 1778036486 | 14.44° C | 94% | 1012.8 hPa | 0 mm | 1.34 m/s, 232° | 0 W/m² | - |
| 1778036183 | 14.44° C | 94% | 1012.9 hPa | 0 mm | 1.34 m/s, 239° | 0 W/m² | - |
| 1778035879 | 14.44° C | 94% | 1012.9 hPa | 1.78 mm | 0.89 m/s, 239° | 0 W/m² | - |
| 1778035577 | 14.44° C | 94% | 1013.1 hPa | 3.05 mm | 1.79 m/s, 213° | 0 W/m² | - |
| 1778035272 | 14.44° C | 94% | 1013 hPa | 3.05 mm | 1.34 m/s, 252° | 0 W/m² | - |
| 1778034969 | 14.44° C | 94% | 1013.1 hPa | 1.78 mm | 1.34 m/s, 233° | 0 W/m² | - |
| 1778034666 | 14.44° C | 94% | 1013.1 hPa | 1.27 mm | 1.34 m/s, 242° | 0 W/m² | - |
| 1778034364 | 14.44° C | 94% | 1013.4 hPa | 1.27 mm | 1.34 m/s, 261° | 0 W/m² | - |
| 1778034061 | 14.44° C | 94% | 1013.5 hPa | 3.56 mm | 2.24 m/s, 224° | 0 W/m² | - |
| 1778033759 | 14.44° C | 93% | 1013.3 hPa | 4.83 mm | 1.34 m/s, 245° | 0 W/m² | - |
| 1778033455 | 14.44° C | 93% | 1013.3 hPa | 6.1 mm | 1.79 m/s, 262° | 0 W/m² | - |
| 1778033153 | 14.44° C | 93% | 1013.3 hPa | 7.87 mm | 1.79 m/s, 242° | 0 W/m² | - |
| 1778032850 | 14.44° C | 93% | 1013.1 hPa | 6.1 mm | 1.79 m/s, 261° | 0 W/m² | - |
| 1778032548 | 14.44° C | 92% | 1013.2 hPa | 6.1 mm | 1.79 m/s, 264° | 0 W/m² | - |
| 1778032244 | 15° C | 92% | 1013 hPa | 4.32 mm | 0.89 m/s, 275° | 0 W/m² | - |
| 1778031942 | 15° C | 91% | 1013.1 hPa | 6.6 mm | 1.34 m/s, 243° | 0 W/m² | - |
| 1778031637 | 15° C | 90% | 1013 hPa | 3.56 mm | 0.89 m/s, 250° | 0 W/m² | - |
| 1778031336 | 15° C | 89% | 1012.8 hPa | 1.27 mm | 1.34 m/s, 258° | 0 W/m² | - |
| 1778031032 | 15° C | 88% | 1012.6 hPa | 1.27 mm | 1.34 m/s, 242° | 0 W/m² | - |
| 1778030728 | 15° C | 88% | 1012.6 hPa | 1.27 mm | 1.79 m/s, 192° | 0 W/m² | - |
| 1778030425 | 15.56° C | 87% | 1012.4 hPa | 1.78 mm | 3.13 m/s, 200° | 0 W/m² | - |
| 1778030128 | 15.56° C | 86% | 1012.3 hPa | 1.78 mm | 2.24 m/s, 228° | 0 W/m² | - |
| 1778029819 | 15.56° C | 85% | 1012.7 hPa | 0 mm | 1.79 m/s, 235° | 0 W/m² | - |
* Rain latest hour (hover to see other rain measurements)
** Current wind speed in m/s (hover to see current wind gust speed)